CW9274 Weather Reports


time (UTC)temp
F
wind
direction
speed
knots
gust
knots
rain 1hr
in
rain 24hr
in
rain mn
in
humidity
%
barometer
mb
20260504081903 44 283 5.2 8.7 0.00 0.00 0.00 77 1012.2
20260504081402 44 282 5.2 7.8 0.00 0.00 0.00 77 1012.3
20260504080903 44 290 4.3 7.8 0.00 0.00 0.00 76 1012.4
20260504080402 44 299 4.3 7.8 0.00 0.00 0.00 76 1012.4
20260504070402 47 348 10.4 19.1 0.00 0.00 0.00 64 1012.6
20260504050403 51 1 6.1 10.4 0.00 0.00 0.00 48 1011.4
20260504045903 51 348 6.1 11.3 0.00 0.00 0.00 48 1011.3
20260504045403 51 347 8.7 14.8 0.00 0.00 0.00 48 1011.3
20260504044903 51 354 7.8 11.3 0.00 0.00 0.00 47 1011.3
20260504044403 51 348 9.6 14.8 0.00 0.00 0.00 47 1011.3
20260504043903 51 354 6.1 14.8 0.00 0.00 0.00 46 1011.2
20260504043403 52 3 8.7 13.0 0.00 0.00 0.00 45 1011.1
20260504042404 52 0 7.8 14.8 0.00 0.00 0.00 42 1010.9
20260504041905 52 0 10.4 20.0 0.00 0.00 0.00 41 1010.7
20260504040404 53 0 12.2 20.9 0.00 0.00 0.00 41 1010.3
20260504035903 53 0 8.7 13.0 0.00 0.00 0.00 41 1010.1
20260504035403 53 0 11.3 17.4 0.00 0.00 0.00 40 1010.0
20260504034903 54 0 11.3 15.6 0.00 0.00 0.00 41 1009.7
20260504033403 54 0 10.4 13.9 0.00 0.00 0.00 41 1009.3
20260504032903 54 0 11.3 14.8 0.00 0.00 0.00 41 1009.1
20260504031903 54 0 10.4 15.6 0.00 0.00 0.00 41 1008.8
20260504031403 54 0 8.7 13.9 0.00 0.00 0.00 41 1008.6
20260504030904 54 0 10.4 13.9 0.00 0.00 0.00 41 1008.4
20260504030403 54 0 8.7 14.8 0.00 0.00 0.00 41 1008.4
20260504025904 54 0 12.2 17.4 0.00 0.00 0.00 40 1008.3
20260504025403 55 0 8.7 20.0 0.00 0.00 0.00 40 1008.3
20260504024903 55 0 11.3 19.1 0.00 0.00 0.00 40 1008.2
20260504024403 55 0 11.3 15.6 0.00 0.00 0.00 40 1008.1
20260504023903 55 0 12.2 17.4 0.00 0.00 0.00 40 1008.0
20260504023403 56 0 13.9 19.1 0.00 0.00 0.00 39 1007.9
20260504022903 56 0 12.2 19.1 0.00 0.00 0.00 39 1007.8
20260504022403 56 0 12.2 20.0 0.00 0.00 0.00 39 1007.7
20260504021404 58 0 10.4 19.1 0.00 0.00 0.00 38 1007.3
20260504020903 59 0 8.7 13.9 0.00 0.00 0.00 38 1007.2
20260504020404 59 0 10.4 17.4 0.00 0.00 0.00 38 1007.0
20260504015903 60 0 12.2 19.1 0.00 0.00 0.00 37 1006.9
20260504015403 60 0 10.4 18.2 0.00 0.00 0.00 37 1006.8
20260504014903 61 0 9.6 15.6 0.00 0.00 0.00 37 1006.7
20260504014403 61 0 11.3 19.1 0.00 0.00 0.00 36 1006.6
20260504013903 61 0 7.8 14.8 0.00 0.00 0.00 37 1006.5
20260504013403 62 0 8.7 13.0 0.00 0.00 0.00 37 1006.5
20260504012904 62 41 8.7 17.4 0.00 0.00 0.00 36 1006.4
20260504012404 62 26 8.7 12.2 0.00 0.00 0.00 37 1006.3
20260504011903 63 23 9.6 13.9 0.00 0.00 0.00 37 1006.3
20260504011404 63 27 10.4 17.4 0.00 0.00 0.00 37 1006.2
20260504010904 63 11 7.8 11.3 0.00 0.00 0.00 37 1006.2
20260504010404 63 22 11.3 15.6 0.00 0.00 0.00 37 1006.1
20260504005904 63 23 10.4 17.4 0.00 0.00 0.00 36 1006.1
20260504005404 63 31 13.9 21.7 0.00 0.00 0.00 35 1006.0
20260504004904 63 27 11.3 20.9 0.00 0.00 0.00 35 1006.0
20260504004403 63 24 11.3 17.4 0.00 0.00 0.00 35 1005.9
20260504003903 64 29 12.2 20.0 0.00 0.00 0.00 35 1005.8
20260504002904 64 29 10.4 15.6 0.00 0.00 0.00 35 1005.7
20260504002404 64 32 10.4 17.4 0.00 0.00 0.00 34 1005.7
20260504001903 65 36 10.4 13.9 0.00 0.00 0.00 34 1005.6
20260504001405 65 23 10.4 14.8 0.00 0.00 0.00 33 1005.5
20260504000904 65 18 8.7 14.8 0.00 0.00 0.00 34 1005.4
20260503235904 65 41 10.4 19.1 0.00 0.00 0.00 33 1005.2
20260503235404 65 44 8.7 17.4 0.00 0.00 0.00 34 1005.1
20260503234904 65 40 9.6 19.1 0.00 0.00 0.00 33 1005.0
20260503234404 66 37 13.9 18.2 0.00 0.00 0.00 32 1005.0
20260503233904 66 42 12.2 19.1 0.00 0.00 0.00 32 1004.9
20260503233404 68 54 7.8 14.8 0.00 0.00 0.00 32 1004.8
20260503232904 68 56 7.0 11.3 0.00 0.00 0.00 30 1004.6
20260503231404 68 46 7.0 11.3 0.00 0.00 0.00 30 1004.6
20260503230905 68 63 4.3 13.9 0.00 0.00 0.00 30 1004.7
20260503230404 68 49 6.1 13.9 0.00 0.00 0.00 29 1004.6
20260503225904 68 49 6.1 13.9 0.00 0.00 0.00 29 1004.5
20260503225404 69 57 6.1 13.9 0.00 0.00 0.00 29 1004.5
20260503224904 69 51 7.0 14.8 0.00 0.00 0.00 28 1004.6
20260503224404 69 58 6.1 13.0 0.00 0.00 0.00 28 1004.6
20260503223904 69 44 5.2 10.4 0.00 0.00 0.00 30 1004.7
20260503223405 69 49 8.7 13.9 0.00 0.00 0.00 28 1004.7
20260503222904 69 47 7.8 12.2 0.00 0.00 0.00 28 1004.8
20260503222404 69 36 7.0 14.8 0.00 0.00 0.00 28 1004.8
20260503221904 70 58 8.7 13.0 0.00 0.00 0.00 28 1004.9
20260503220901 71 53 8.7 15.6 0.00 0.00 0.00 27 1004.6
20260503220401 71 57 7.8 12.2 0.00 0.00 0.00 26 1004.6
20260503215900 72 333 2.6 7.8 0.00 0.00 0.00 25 1004.8
20260503215400 72 210 1.7 4.3 0.00 0.00 0.00 23 1004.7
20260503214400 71 343 1.7 10.4 0.00 0.00 0.00 24 1004.9
20260503213900 72 8 6.1 10.4 0.00 0.00 0.00 24 1004.9
20260503212401 71 353 4.3 13.0 0.00 0.00 0.00 26 1005.1
20260503211900 71 24 3.5 10.4 0.00 0.00 0.00 26 1005.2
20260503211401 71 171 4.3 10.4 0.00 0.00 0.00 23 1005.2
20260503210901 71 284 3.5 10.4 0.00 0.00 0.00 24 1005.3
20260503210402 71 295 8.7 15.6 0.00 0.00 0.00 24 1005.3
20260503205901 71 232 4.3 10.4 0.00 0.00 0.00 24 1005.4
20260503205400 71 44 2.6 11.3 0.00 0.00 0.00 24 1005.5
20260503204901 71 260 4.3 8.7 0.00 0.00 0.00 26 1005.7
20260503204400 71 282 3.5 6.1 0.00 0.00 0.00 27 1005.7
20260503203901 70 327 0.9 4.3 0.00 0.00 0.00 25 1005.7
20260503202400 69 281 5.2 12.2 0.00 0.00 0.00 26 1006.0
20260503201900 69 267 4.3 10.4 0.00 0.00 0.00 25 1006.3
20260503201401 70 289 4.3 10.4 0.00 0.00 0.00 27 1006.3
20260503200901 70 289 5.2 10.4 0.00 0.00 0.00 27 1006.3
20260503200401 69 276 2.6 10.4 0.00 0.00 0.00 26 1006.4
20260503195900 69 315 5.2 10.4 0.00 0.00 0.00 28 1006.5
20260503195400 69 320 3.5 8.7 0.00 0.00 0.00 28 1006.6
20260503194900 68 327 5.2 12.2 0.00 0.00 0.00 29 1006.7
20260503194400 68 351 2.6 7.0 0.00 0.00 0.00 29 1006.9
20260503193900 68 332 6.1 11.3 0.00 0.00 0.00 28 1007.0
20260503193401 68 325 2.6 8.7 0.00 0.00 0.00 29 1007.1
20260503192401 67 85 3.5 12.2 0.00 0.00 0.00 28 1007.3
20260503191901 67 320 5.2 7.8 0.00 0.00 0.00 29 1007.4
20260503191401 67 357 6.1 13.9 0.00 0.00 0.00 30 1007.6
20260503190401 66 316 1.7 10.4 0.00 0.00 0.00 29 1007.7
20260503185402 67 354 6.1 10.4 0.00 0.00 0.00 30 1007.9
20260503184901 65 0 1.7 10.4 0.00 0.00 0.00 31 1007.9
20260503184400 65 358 7.0 13.9 0.00 0.00 0.00 30 1008.0
20260503183901 65 44 7.8 12.2 0.00 0.00 0.00 30 1008.0
20260503183401 65 26 4.3 8.7 0.00 0.00 0.00 30 1008.0
20260503182901 65 355 6.1 13.9 0.00 0.00 0.00 28 1008.1
20260503182401 65 28 4.3 8.7 0.00 0.00 0.00 31 1008.2
20260503181901 66 14 8.7 13.0 0.00 0.00 0.00 32 1008.2
20260503181401 65 321 6.1 11.3 0.00 0.00 0.00 30 1008.3
20260503180901 65 10 7.8 12.2 0.00 0.00 0.00 30 1008.4
20260503180402 65 23 6.1 10.4 0.00 0.00 0.00 32 1008.5
20260503175900 64 355 5.2 13.9 0.00 0.00 0.00 31 1008.6
20260503175401 65 22 8.7 13.0 0.00 0.00 0.00 30 1008.7
20260503174401 64 11 6.1 12.2 0.00 0.00 0.00 31 1008.8
20260503173401 65 35 10.4 13.9 0.00 0.00 0.00 30 1008.8
20260503172901 64 8 6.1 12.2 0.00 0.00 0.00 32 1008.8
20260503172400 64 47 5.2 10.4 0.00 0.00 0.00 30 1008.9
20260503171901 64 353 7.8 13.0 0.00 0.00 0.00 31 1009.1
20260503171401 65 0 9.6 13.0 0.00 0.00 0.00 31 1009.0
20260503170901 64 305 5.2 10.4 0.00 0.00 0.00 31 1009.0
20260503150902 57 255 6.1 8.7 0.00 0.00 0.00 33 1010.1
20260503130902 49 287 1.7 2.6 0.00 0.00 0.00 37 1010.5
20260503130402 49 330 1.7 2.6 0.00 0.00 0.00 37 1010.5
20260503110401 46 268 2.6 5.2 0.00 0.00 0.00 42 1010.9